EW6030 Weather Reports


Display with metric or nautical units.
time (UTC)temp
F
wind
direction
speed
MPH
gust
MPH
rain 1hr
in
rain 24hr
in
rain mn
in
humidity
%
barometer
mb
20260903134504 75 51 0.0 0.0 0.00 0.00 0.06 71 1010.2
20260903133003 75 51 0.0 0.0 0.00 0.00 0.06 71 1009.4
20260903131610 75 51 0.0 0.0 0.00 0.00 0.06 71 1009.3
20260903130120 75 51 0.0 0.0 0.00 0.00 0.06 71 1008.8
20260903124600 75 51 0.0 0.0 0.00 0.00 0.05 71 1008.9
20260903123059 75 51 0.0 0.0 0.00 0.00 0.04 71 1008.9
20260903121557 75 51 0.0 0.0 0.00 0.00 0.03 71 1009.0
20260903120056 75 51 0.0 0.0 0.00 0.00 0.02 71 1008.4
20260903114556 75 51 0.0 0.0 0.00 0.00 0.00 71 1008.6
20260903113055 75 51 0.0 0.0 0.00 0.00 0.00 71 1008.1
20260903111603 75 51 0.0 0.0 0.00 0.00 0.00 71 1007.9
20260903110054 74 51 0.0 0.0 0.00 0.00 0.00 71 1007.8
20260903104554 74 51 0.0 0.0 0.00 0.00 0.00 71 1007.9
20260903103054 74 51 0.0 0.0 0.00 0.00 0.00 71 1008.0
20260903101557 74 51 0.0 0.0 0.00 0.00 0.00 71 1007.9
20260903100054 74 51 0.0 0.0 0.00 0.00 0.00 71 1007.9
20260903094556 74 51 0.0 0.0 0.00 0.00 0.00 71 1008.0
20260903093102 74 51 0.0 0.0 0.00 0.00 0.00 71 1008.1
20260903091549 74 51 0.0 0.0 0.00 0.00 0.00 71 1008.1
20260903090049 73 51 0.0 0.0 0.00 0.00 0.00 71 1008.0
20260903084548 73 51 0.0 0.0 0.00 0.00 0.00 72 1008.0
20260903083053 73 51 0.0 0.0 0.00 0.00 0.00 72 1008.0
20260903081549 73 51 0.0 0.0 0.00 0.00 0.00 72 1007.9
20260903080050 73 51 0.0 0.0 0.00 0.00 0.00 72 1008.1
20260903074546 73 51 0.0 0.0 0.00 0.00 0.00 72 1008.0
20260903073045 73 51 0.0 0.0 0.00 0.00 0.00 72 1008.2
20260903071542 74 51 0.0 0.0 0.00 0.00 0.00 72 1008.3
20260903070040 74 51 0.0 0.0 0.00 0.00 0.00 73 1008.4
20260903064541 74 51 0.0 0.0 0.00 0.00 0.00 73 1008.4
20260903063038 74 51 0.0 0.0 0.00 0.00 0.00 73 1008.4
20260903061547 74 51 0.0 0.0 0.00 0.00 0.00 73 1008.5
20260903060037 75 51 0.0 0.0 0.00 0.00 0.00 73 1008.5
20260903054535 75 51 0.0 0.0 0.00 0.00 0.00 73 1008.6
20260903053034 75 51 0.0 0.0 0.00 0.00 0.00 74 1008.6
20260903051533 75 51 0.0 0.0 0.00 0.00 0.00 74 1008.6
20260903050033 75 51 0.0 0.0 0.00 0.00 0.00 75 1008.7
20260903044536 75 51 0.0 0.0 0.00 0.00 0.00 76 1008.7
20260903043040 75 51 0.0 0.0 0.00 0.00 0.00 76 1008.6
20260903041531 75 51 0.0 0.0 0.00 0.00 0.00 76 1008.6
20260903040028 76 51 0.0 0.0 0.00 0.00 0.00 77 1008.6
20260903034538 76 51 0.0 0.0 0.00 0.00 0.00 77 1008.6
20260903033026 76 51 0.0 0.0 0.00 0.00 0.00 77 1008.6
20260903031525 76 51 0.0 0.0 0.00 0.00 0.00 77 1008.5
20260903030026 77 51 0.0 0.0 0.00 0.00 0.00 77 1008.4
20260903024525 77 51 0.0 0.0 0.00 0.00 0.00 76 1008.4
20260903023025 77 51 0.0 0.0 0.00 0.00 0.00 76 1008.4
20260903021524 77 51 0.0 0.0 0.00 0.00 0.00 77 1008.1
20260903020044 78 51 0.0 0.0 0.00 0.00 0.00 76 1008.2
20260903014524 78 51 0.0 0.0 0.00 0.00 0.00 76 1008.2
20260903013022 78 51 0.0 0.0 0.00 0.00 0.00 76 1008.0
20260903011522 78 51 0.0 0.0 0.00 0.00 0.00 76 1007.9
20260903010022 78 51 0.0 0.0 0.00 0.00 0.00 76 1007.8
20260903004521 79 51 0.0 0.0 0.00 0.00 0.00 76 1007.8
20260903003021 80 51 0.0 0.0 0.00 0.00 0.00 75 1007.8
20260903001520 80 51 0.0 0.0 0.00 0.00 0.00 75 1007.8
20260903000020 81 51 0.0 0.0 0.00 0.00 0.00 74 1007.7
20260902234521 82 51 0.0 0.0 0.00 0.00 0.00 74 1007.6
20260902233020 83 51 0.0 0.0 0.00 0.00 0.00 73 1007.5
20260902231519 84 51 0.0 0.0 0.00 0.00 0.00 71 1007.6
20260902230018 86 51 0.0 0.0 0.00 0.00 0.00 69 1007.6
20260902224517 86 51 0.0 0.0 0.00 0.00 0.00 69 1007.5
20260902223020 86 50 0.0 0.0 0.00 0.00 0.00 68 1007.6
20260902221518 85 54 0.0 0.0 0.00 0.00 0.00 73 1007.7
20260902220020 85 54 0.0 0.0 0.00 0.00 0.00 72 1007.7
20260902214513 86 58 0.0 0.0 0.00 0.00 0.00 71 1007.9
20260902213012 86 58 0.0 0.0 0.00 0.00 0.00 71 1008.0
20260902211511 86 58 0.0 0.0 0.00 0.00 0.00 69 1008.1
20260902210017 87 58 2.0 0.0 0.00 0.00 0.00 68 1008.2
20260902204510 87 58 1.0 0.0 0.00 0.00 0.00 65 1007.9
20260902203009 87 53 0.0 0.0 0.00 0.00 0.00 67 1008.0
20260902201517 88 53 0.0 0.0 0.00 0.00 0.00 67 1008.3
20260902200007 88 53 0.0 0.0 0.00 0.00 0.00 66 1008.1
20260902194504 87 54 1.0 0.0 0.00 0.00 0.00 67 1008.3
20260902193003 87 53 1.0 0.0 0.00 0.00 0.00 70 1008.5
20260902191501 87 51 0.0 0.0 0.00 0.00 0.00 69 1008.4
20260902190059 87 51 0.0 0.0 0.00 0.00 0.00 70 1008.4
20260902184558 86 51 0.0 0.0 0.00 0.00 0.00 71 1008.4
20260902183055 85 51 0.0 0.0 0.00 0.00 0.00 72 1008.6
20260902181555 85 50 0.0 0.0 0.00 0.00 0.00 73 1008.4
20260902180054 85 55 0.0 0.0 0.00 0.00 0.00 73 1008.6
20260902174549 84 55 0.0 0.0 0.00 0.00 0.00 73 1008.8
20260902173047 83 33 0.0 0.0 0.00 0.00 0.00 73 1009.2
20260902171602 83 33 0.0 0.0 0.00 0.00 0.00 73 1009.2
20260902170043 82 33 0.0 0.0 0.00 0.00 0.00 74 1009.5
20260902164540 82 313 0.0 0.0 0.00 0.00 0.00 75 1009.4
20260902163039 81 313 0.0 0.0 0.00 0.00 0.00 74 1009.4
20260902161536 80 314 0.0 0.0 0.00 0.00 0.00 75 1009.5
20260902160034 79 274 0.0 0.0 0.00 0.00 0.00 76 1009.4
20260902154533 79 274 0.0 0.0 0.00 0.00 0.00 76 1009.5
20260902153033 78 275 0.0 0.0 0.00 0.00 0.00 76 1009.4
20260902151529 78 274 0.0 0.0 0.00 0.00 0.00 76 1009.6
20260902150026 77 274 0.0 0.0 0.00 0.00 0.00 77 1009.7
20260902144525 76 297 0.0 0.0 0.00 0.00 0.00 77 1009.0
20260902143025 76 257 0.0 0.0 0.00 0.00 0.00 77 1008.9
20260902141525 76 252 0.0 0.0 0.00 0.00 0.00 77 1009.3
20260902140034 75 235 0.0 0.0 0.00 0.00 0.00 77 1009.3